NOAA 16 DEB, 41298

Orbit data source: Space-Track

NOAA 16 DEB, 41298 is space debris in SSO originally from a launch on Thu, 21 Sep 2000 UTC launched from the Air Force Western Test Range (AFWTR). Debris objects in space refer to the collection of defunct objects orbiting the Earth. Examples of debris include non-operational satellites, rocket bodies, and fragments generated from explosions, collisions, or faulty payload assembly.

Loading next visibility...
Identifier
41298, 2000-055HA
Orbit
SSO
Country
Flag of USUS
Related business
Manufacturer
Unknown
Mission
Spacecraft
Bus & Motor
Unknown
Mass
Unknown
Launch date (UTC)
2000-09-21 (25 years ago)
Launch vehicle
Unknown
Launch site
Air Force Western Test Range (AFWTR)
Object type
Payload
Rocket body
Debris
Shape & HBR
Unknown shape, 0.1 m
Radar Cross Section
Small (<0.1 m²)

Expand to show TLE details & history
Last TLE update: 3 days ago

TLE from 3 days ago
0 NOAA 16 DEB
1 41298U 00055HA  25347.15449368  .00006505  00000-0  26927-2 0  9999
2 41298  98.7215  58.8061 0050914 207.7259 152.1205 14.26240771514142
Epoch: 2025-12-13T03:42Z
TLE epoch observation values (Epoch: 2025-12-13T03:42:28.253Z)
Latitude
-0.00004°
Longitude
-78.89745°
Altitude
839.618 km
Speed
7.416 km/s
True Right ascension
03h 55m 13s
True Declination
0° 00' 00"
Sunlit
Object was in full shadow at epoch
Visualization orbit readout
Latitude
Unknown
Longitude
Unknown
Altitude
Unknown
Speed
Unknown
Apparent Right ascension
Unknown
Apparent Declination
Unknown
Sunlit
N/A
Visualization observer readout
Local Sidereal Time
12:53:00
Azimuth
Unknown
Elevation
Unknown
Doppler factor
Unknown
Orbital elements
Apogee altitude
838.029 km
Perigee altitude
764.92 km
Semi-major axis
7,179.612 km
Eccentricity
0.00509
Inclination
98.7215°
RAAN
58.8061°
Arg. of periapsis
207.7259°
True anomaly
152.39179°
Mean anomaly
152.1205°
Eccentric anomaly
152.2563°
Mean motion
3.56773 °/min
Orbital period
100.9 mins
BSTAR
0.0026927
Loading maneuver chart data...
Computing Atmospheric mass density...
Loading historical data...
Loading historical data...
Loading historical data...
Loading historical data...
Loading historical data...
Loading historical data...
Loading historical data...

Documentation

Showing up to 5 results
|